This is the latest recevied weather packets stored in our database for station/object OH3FZQ-L1. If no packets are shown the sender has not sent any weather packets the latest 10 day(s).
| Time | Temp. | Humidity | Pressure | Rain* | Wind** | Luminosity | Snow |
|---|---|---|---|---|---|---|---|
| 1778095997 | 24.44° C | 44% | 1006.5 hPa | - | - | - | - |
| 1778095097 | 24.44° C | 44% | 1006.6 hPa | - | - | - | - |
| 1778094196 | 24.44° C | 44% | 1006.5 hPa | - | - | - | - |
| 1778093296 | 25° C | 44% | 1006.5 hPa | - | - | - | - |
| 1778092396 | 25° C | 45% | 1006.4 hPa | - | - | - | - |
| 1778091496 | 25° C | 46% | 1006.2 hPa | - | - | - | - |
| 1778090596 | 25° C | 48% | 1006.1 hPa | - | - | - | - |
| 1778089696 | 23.33° C | 46% | 1006 hPa | - | - | - | - |
| 1778088798 | 23.33° C | 47% | 1005.8 hPa | - | - | - | - |
| 1778087898 | 22.78° C | 47% | 1005.8 hPa | - | - | - | - |
| 1778086998 | 22.78° C | 47% | 1005.6 hPa | - | - | - | - |
| 1778086098 | 22.78° C | 49% | 1005.6 hPa | - | - | - | - |
| 1778085198 | 22.78° C | 49% | 1005.5 hPa | - | - | - | - |
| 1778084298 | 22.78° C | 47% | 1005.5 hPa | - | - | - | - |
| 1778083398 | 22.78° C | 49% | 1005.6 hPa | - | - | - | - |
| 1778082497 | 22.22° C | 47% | 1005.5 hPa | - | - | - | - |
| 1778081597 | 22.22° C | 45% | 1005.5 hPa | - | - | - | - |
| 1778080697 | 22.22° C | 46% | 1005.4 hPa | - | - | - | - |
| 1778079797 | 22.22° C | 47% | 1005.5 hPa | - | - | - | - |
| 1778078897 | 21.67° C | 48% | 1005.5 hPa | - | - | - | - |
| 1778077997 | 22.22° C | 47% | 1005.5 hPa | - | - | - | - |
| 1778077097 | 21.67° C | 43% | 1005.5 hPa | - | - | - | - |
| 1778076197 | 21.67° C | 43% | 1005.2 hPa | - | - | - | - |
| 1778075296 | 21.67° C | 43% | 1005.3 hPa | - | - | - | - |
| 1778074396 | 21.67° C | 43% | 1005.4 hPa | - | - | - | - |
* Rain since midnight (hover to see other rain measurements)
** Current wind speed in m/s (hover to see current wind gust speed)